Flight Briefing for CMB807

Departure Arrival
Thule Air Base (BGTL)
Click to view FAA NOTAMS
Joint Base McGuire Dix Lakehurst (KWRI)
Click to view FAA NOTAMS
Departure Time Arrival Time
N/A N/A
Aircraft Distance
B757-200SF 2201nm
Departure METAR Arrival METAR
BGTL 232256Z AUTO 00000KT 9999 CLR 05/02 A3003 RMK AO2 SLP154 T00480020 TSNO $ KWRI 232256Z AUTO 17003KT 10SM FEW120 21/21 A2989 RMK AO2 SLP121 T02070207
Suggested Route





View recent IFR Routes data
Notes
USTRANSCOM CONTRACT FLIGHT

Charts and Procedures

Charts for BGTL
No chart available
Charts for KWRI
No chart available

Windy.com Weather Map